Regional Weather Roundup
Issued by NWS

Home | Current Version | Previous Version | Text Only | Print | Product List | Glossary On
Versions: 1 2 3 4 5 6 7 8 9 10 11 12 13 14 15 16 17 18 19 20 21 22 23 24 25 26 27 28 29 30 31 32 33 34 35 36 37 38 39 40 41 42 43 44 45 46 47 48 49 50
000
ASUS44 KEWX 270303
RWRTX
SOUTH TEXAS REGIONAL WEATHER ROUNDUP
NATIONAL WEATHER SERVICE AUSTIN/SAN ANTONIO TX
1000 PM CDT TUE MAY 26 2015

NOTE: "FAIR" INDICATED FEW OR NO CLOUDS BELOW 12,000 FEET WITH NO
SIGNIFICANT WEATHER AND/OR OBSTRUCTIONS TO VISIBILITY.

* - THESE STATIONS ARE NOT NWS OR FAA STATIONS...AND ARE NOT SUBJECT
    TO NWS AND FAA QUALITY CONTROL.

TXZ171-172-183>190-270400-
TEXAS HILL COUNTRY AND EDWARDS PLATEAU

CITY           SKY/WX    TMP DP  RH WIND       PRES   REMARKS
JUNCTION       PTCLDY    79  69  71 S12       29.99R
*LLANO         CLOUDY    81  73  78 S7        30.00R
BURNET         CLOUDY    79  72  79 S8        30.01R
*HORSESHOE BAY CLOUDY    79  73  82 SE9       29.98R
*KERRVILLE     CLOUDY    76  73  89 S6        30.01R
*FREDERICKSBRG CLOUDY    76  70  81 S8        30.00R
*ROCKSPRINGS   MOCLDY   N/A N/A N/A SE7       30.03R HAZE
*BOERNE STAGE    N/A     77  72  83 S9G20     30.01R
*CASTROVILLE   PTCLDY    79  72  78 SE6       29.97R
HONDO          CLOUDY    79  74  84 SE16      29.97R
*UVALDE        CLOUDY    78  74  88 E10G16    29.94R
DEL RIO        MOCLDY    81  72  74 E8        29.90R
LAUGHLIN AFB   PTCLDY    79  76  92 E7        29.91R
CARRIZO SPRGS  CLOUDY    81  73  78 SE8       29.90R
$$

TXZ173-191>194-202-209-217>225-228-270400-
CENTRAL AND SOUTH CENTRAL TEXAS

CITY           SKY/WX    TMP DP  RH WIND       PRES   REMARKS
GEORGETOWN     MOCLDY    79  73  83 SE9       29.97R
AUSTIN/BERGSTM MOCLDY    79  74  84 SE8       29.98R
AUSTIN/MABRY   CLOUDY    80  73  79 SE9G18    29.99R
*AUSTIN/EXEC   MOCLDY    77  73  88 S13       29.98R
*LAGO VISTA    CLOUDY    79  73  82 S7G21     30.00R
SAN MARCOS     NOT AVBL
NEW BRAUNFELS  CLOUDY    78  74  87 S12       29.96R
RANDOLPH AFB   MOCLDY    77  73  88 SE6       29.98R
PT SAN ANTONIO PTCLDY    79  74  85 SE12      29.96R
SAN ANTONIO    MOCLDY    80  73  79 SE15      29.98R
STINSON FIELD  CLOUDY    79  74  84 SE10      29.95R
*PLEASANTON    MOCLDY    79  73  80 SE6       29.96R
*LA GRANGE     PTCLDY    80  76  89 SE8       29.97S
*GIDDINGS      PTCLDY    78  73  86 SE7       30.02R
*GONZALES      CLOUDY    79  77  93 SE5       29.97R
$$

TXZ163>164-176>182-195>201-210>213-226-227-235-270400-
SOUTHEAST TEXAS

CITY           SKY/WX    TMP DP  RH WIND       PRES   REMARKS
COLLEGE STN    CLOUDY    78  73  84 SE14      29.99S
*BRYAN         CLOUDY    77  74  88 SE10      30.01R
*CALDWELL      PTCLDY    77  75  94 E10       30.01S FOG
*CROCKETT      NOT AVBL
*BRENHAM       MOCLDY    79  75  89 SE9       30.00F
HUNTSVILLE     PTCLDY    77  70  79 SE8       30.01F
CONROE         CLOUDY    76  70  82 SE7       30.03S
HOUSTON BUSH   MOCLDY    78  72  81 SE14      30.02R
HOUSTON HOBBY  CLOUDY    80  73  79 SE5       30.03R
*HOUSTON SW AP NOT AVBL
PEARLAND       CLOUDY    80  74  81 E7        30.04R
HOUSTON HOOKS  CLOUDY    78  72  81 SE6       30.03R
ELLINGTON FLD  CLOUDY    79  75  89 SE6       30.04R
SUGAR LAND     CLOUDY    79  73  82 E6        30.02R
*HOUSTON EXEC  MOCLDY    77  73  88 SE10      30.02S
*CLEVELAND MUN CLOUDY    74  72  95 CALM      30.05R
*WHARTON       CLOUDY    78  74  90 E7        30.01R
*COLUMBUS      CLOUDY    77  75  91 E8        30.00R
$$

TXZ214>216-236>238-270400-
THE UPPER TEXAS COAST

CITY           SKY/WX    TMP DP  RH WIND       PRES   REMARKS
*ORANGE        CLOUDY    79  69  73 SE6       30.07R
PORT ARTHUR    MOCLDY    79  71  76 SE8       30.05R
GALVESTON      CLOUDY    80  75  84 SE17      30.04R
ANGLETON       CLOUDY    77  75  93 SE12      30.01R
*BAY CITY      CLOUDY    80  78  94 SE8       29.99R
PALACIOS       CLOUDY    81  78  91 SE13      29.98R
$$

TXZ229>234-239>247-270400-
TEXAS COASTAL BEND AND RIO GRANDE PLAINS

CITY           SKY/WX    TMP DP  RH WIND       PRES   REMARKS
VICTORIA       CLOUDY    79  78  97 SE8       29.99R
*BEEVILLE      MOCLDY    78  78 100 SE7       29.96R
ROCKPORT       CLOUDY    82  78  88 SE13      29.96R HX  91
*PORT ARANSAS  CLOUDY    81  78  92 SE13      29.95R
*PORT LAVACA   CLOUDY    79  77  94 SE9       29.97R
*INGLESIDE     MOCLDY    83  78  86 SE12      29.95R HX  92
CORPUS CHRISTI CLOUDY    81  77  88 SE10      29.95R
CORPUS NAS     MOCLDY    81  78  91 SE13      29.95R
*ROBSTOWN      MOCLDY    81  81 100 SE6       29.95R HX  91
ALICE          CLOUDY    80  77  90 SE8       29.94R
KINGSVILLE NAS CLOUDY    81  80  97 SE8       29.94R HX  91
COTULLA        CLOUDY    83  75  77 SE13      29.92R HX  90
*FAITH RANCH     N/A     84  75  74 E7        29.92R HX  92
LAREDO         CLOUDY    84  75  74 SE14      29.93R HX  91
$$

TXZ248>255-270400-
DEEP SOUTH TEXAS

CITY           SKY/WX    TMP DP  RH WIND       PRES   REMARKS
BROWNSVILLE    CLOUDY    82  78  88 SE9       29.95R HX  91
PORT ISABEL    CLOUDY    81  78  91 SE12      29.94R FOG
*SOUTH PADRE   MOCLDY   102 N/A N/A SW12      29.95R
HARLINGEN      CLOUDY    80  78  94 SE7       29.93R
*HEBBRONVILLE    N/A     81  75  82 E8        29.96R
MCALLEN        CLOUDY    83  76  79 SE10      29.93R HX  91
*WESLACO       MOCLDY    82  75  81 SE6       29.93R
FALFURRIAS     CLOUDY    80  76  86 SE8       29.93R
EDINBURG       MOCLDY    83  77  83 SE9       29.92R HX  91
*ZAPATA        MOCLDY    83  74  73 E5        29.93R HX  90
$$

TXZ213>215-236>238-242>244-246-247-251-254-255-270400-
CMAN STATIONS

STATION/POSITION TIME  TEMP    WIND        PRES    WAVE
                       AIR SEA DIR/SP/G            HT/PER
                 (UTC) (F)     (DEG/KT/KT) (MB)    (FT/S)
$$

GMZ080-GMZ150>470-270400-
OFFSHORE BUOY REPORTS

STATION/POSITION TIME  TEMP    WIND        PRES    WAVE
                       AIR SEA DIR/SP/G            HT/PER
                 (UTC) (F)     (DEG/KT/KT) (MB)    (FT/S)
$$



USA.gov is the U.S. government's official web portal to all federal, state and local government web resources and services.